This is the latest recevied weather packets stored in our database for station/object KM4NDN. If no packets are shown the sender has not sent any weather packets the latest 10 day(s).
| Time | Temp. | Humidity | Pressure | Rain* | Wind** | Luminosity | Snow |
|---|---|---|---|---|---|---|---|
| 1778039107 | 8.33° C | 96% | 1007.1 hPa | 3.05 mm | - | 0 W/m² | - |
| 1778038803 | 8.33° C | 96% | 1007.1 hPa | 1.27 mm | - | 0 W/m² | - |
| 1778038501 | 8.33° C | 96% | 1007.3 hPa | 1.78 mm | - | 0 W/m² | - |
| 1778038197 | 8.33° C | 96% | 1007.5 hPa | 1.27 mm | - | 0 W/m² | - |
| 1778037895 | 8.33° C | 96% | 1007.7 hPa | 3.05 mm | - | 0 W/m² | - |
| 1778037591 | 8.89° C | 96% | 1007.7 hPa | 3.56 mm | - | 0 W/m² | - |
| 1778037289 | 8.89° C | 96% | 1007.7 hPa | 3.05 mm | - | 0 W/m² | - |
| 1778036986 | 8.89° C | 96% | 1007.6 hPa | 3.05 mm | - | 0 W/m² | - |
| 1778036684 | 8.89° C | 96% | 1007.6 hPa | 3.05 mm | - | 0 W/m² | - |
| 1778036381 | 8.89° C | 96% | 1007.9 hPa | 3.05 mm | - | 0 W/m² | - |
| 1778036077 | 8.89° C | 96% | 1007.8 hPa | 3.05 mm | - | 0 W/m² | - |
| 1778035774 | 8.89° C | 96% | 1007.9 hPa | 3.05 mm | - | 0 W/m² | - |
| 1778035471 | 8.89° C | 96% | 1008.1 hPa | 3.05 mm | - | 0 W/m² | - |
| 1778035167 | 8.89° C | 95% | 1007.8 hPa | 3.05 mm | - | 0 W/m² | - |
| 1778034864 | 8.89° C | 95% | 1008.1 hPa | 3.05 mm | - | 0 W/m² | - |
| 1778034560 | 8.89° C | 95% | 1007.7 hPa | 3.05 mm | - | 0 W/m² | - |
| 1778034258 | 8.89° C | 95% | 1008.1 hPa | 3.56 mm | - | 0 W/m² | - |
| 1778033956 | 8.89° C | 95% | 1008 hPa | 4.83 mm | - | 0 W/m² | - |
| 1778033653 | 8.89° C | 95% | 1007.9 hPa | 4.83 mm | - | 0 W/m² | - |
| 1778033350 | 8.89° C | 95% | 1007.6 hPa | 3.05 mm | - | 0 W/m² | - |
| 1778033048 | 8.89° C | 95% | 1007.7 hPa | 1.27 mm | - | 0 W/m² | - |
| 1778032745 | 8.89° C | 95% | 1007.6 hPa | 1.78 mm | - | 0 W/m² | - |
| 1778032442 | 8.89° C | 95% | 1007.5 hPa | 3.05 mm | - | 0 W/m² | - |
| 1778032139 | 8.89° C | 95% | 1007.7 hPa | 3.05 mm | - | 0 W/m² | - |
| 1778031836 | 8.89° C | 95% | 1007.5 hPa | 3.05 mm | - | 0 W/m² | - |
* Rain latest hour (hover to see other rain measurements)
** Current wind speed in m/s (hover to see current wind gust speed)